TimeCST,TemperatureF,Dew PointF,Humidity,Sea Level PressureIn,VisibilityMPH,Wind Direction,Wind SpeedMPH,Gust SpeedMPH,PrecipitationIn,Events,Conditions,WindDirDegrees,DateUTC
12:15 AM,46.4,42.8,87,29.94,10.0,SE,10.4,-,0.01,Rain,Light Rain,140,2013-02-22 06:15:00
12:35 AM,46.4,42.8,87,29.94,5.0,SE,9.2,-,0.02,Rain,Heavy Rain,140,2013-02-22 06:35:00
12:55 AM,46.4,42.8,87,29.94,7.0,SE,9.2,-,0.02,,Drizzle,140,2013-02-22 06:55:00
1:15 AM,46.4,44.6,93,29.93,10.0,SSE,12.7,17.3,0.01,,Overcast,150,2013-02-22 07:15:00
1:35 AM,48.2,44.6,87,29.92,10.0,SSE,13.8,20.7,0.01,,Overcast,150,2013-02-22 07:35:00
1:55 AM,46.4,42.8,87,29.92,10.0,SSE,15.0,23.0,0.02,,Overcast,150,2013-02-22 07:55:00
2:15 AM,46.4,42.8,87,29.92,10.0,SSE,13.8,19.6,N/A,,Overcast,150,2013-02-22 08:15:00
2:35 AM,46.4,42.8,87,29.92,10.0,SSE,15.0,21.9,N/A,,Overcast,150,2013-02-22 08:35:00
2:55 AM,46.4,42.8,87,29.93,10.0,SSE,11.5,20.7,N/A,,Overcast,150,2013-02-22 08:55:00
3:15 AM,46.4,42.8,87,29.93,10.0,SSE,10.4,-,N/A,Rain,Rain,150,2013-02-22 09:15:00
3:35 AM,46.4,42.8,87,29.93,10.0,SE,12.7,-,N/A,,Overcast,140,2013-02-22 09:35:00
3:55 AM,46.4,42.8,87,29.94,10.0,SSE,9.2,17.3,N/A,,Overcast,150,2013-02-22 09:55:00
4:15 AM,46.4,42.8,87,29.95,10.0,SSE,6.9,-,N/A,,Overcast,150,2013-02-22 10:15:00
4:35 AM,46.4,42.8,87,29.96,10.0,SSE,9.2,-,N/A,,Overcast,160,2013-02-22 10:35:00
4:55 AM,48.2,42.8,82,29.97,10.0,SE,8.1,-,N/A,,Overcast,140,2013-02-22 10:55:00
5:15 AM,48.2,42.8,82,29.98,10.0,SSE,10.4,17.3,N/A,,Light Drizzle,160,2013-02-22 11:15:00
5:35 AM,48.2,42.8,82,30.01,10.0,SSW,9.2,-,N/A,Rain,Rain,210,2013-02-22 11:35:00
5:55 AM,48.2,42.8,82,30.01,10.0,SE,4.6,-,N/A,,Overcast,140,2013-02-22 11:55:00
6:15 AM,48.2,42.8,82,30.01,10.0,SSE,5.8,-,N/A,,Overcast,150,2013-02-22 12:15:00
6:35 AM,48.2,42.8,82,30.02,10.0,SSE,6.9,-,N/A,,Overcast,150,2013-02-22 12:35:00
7:15 AM,48.2,42.8,82,30.03,10.0,SSE,9.2,-,N/A,,Overcast,160,2013-02-22 13:15:00
7:35 AM,48.2,42.8,82,30.03,10.0,SSE,6.9,-,N/A,,Overcast,150,2013-02-22 13:35:00
7:55 AM,48.2,42.8,82,30.03,10.0,SSE,8.1,-,N/A,,Overcast,160,2013-02-22 13:55:00
8:15 AM,48.2,42.8,82,30.03,10.0,SE,4.6,-,N/A,,Overcast,140,2013-02-22 14:15:00
8:35 AM,48.2,42.8,82,30.04,10.0,SE,5.8,-,N/A,,Overcast,140,2013-02-22 14:35:00
8:55 AM,48.2,42.8,82,30.05,10.0,SE,8.1,-,N/A,,Overcast,140,2013-02-22 14:55:00
9:15 AM,48.2,42.8,82,30.05,10.0,SSE,6.9,-,N/A,,Overcast,150,2013-02-22 15:15:00
9:35 AM,48.2,42.8,82,30.06,10.0,SE,5.8,-,N/A,,Overcast,140,2013-02-22 15:35:00
10:15 AM,48.2,42.8,82,30.06,10.0,SE,10.4,-,N/A,,Overcast,140,2013-02-22 16:15:00
10:35 AM,48.2,42.8,82,30.06,10.0,SSE,9.2,-,N/A,,Overcast,150,2013-02-22 16:35:00
10:55 AM,48.2,42.8,82,30.09,10.0,SSE,6.9,-,N/A,,Overcast,150,2013-02-22 16:55:00
11:15 AM,50.0,42.8,76,30.09,10.0,SSE,4.6,-,N/A,,Overcast,150,2013-02-22 17:15:00
11:35 AM,50.0,42.8,76,30.09,10.0,SSE,4.6,-,N/A,,Overcast,160,2013-02-22 17:35:00
11:55 AM,50.0,42.8,76,30.08,10.0,SSE,6.9,-,N/A,,Overcast,150,2013-02-22 17:55:00
12:15 PM,50.0,42.8,76,30.07,10.0,SSE,6.9,-,N/A,,Overcast,160,2013-02-22 18:15:00
12:35 PM,50.0,42.8,76,30.06,10.0,SE,6.9,-,N/A,,Overcast,140,2013-02-22 18:35:00
12:55 PM,50.0,42.8,76,30.05,10.0,SE,11.5,-,N/A,,Overcast,140,2013-02-22 18:55:00
1:15 PM,50.0,42.8,76,30.04,10.0,SSE,10.4,-,N/A,,Overcast,160,2013-02-22 19:15:00
1:35 PM,50.0,42.8,76,30.03,10.0,SE,10.4,-,N/A,,Overcast,140,2013-02-22 19:35:00
1:55 PM,50.0,42.8,76,30.02,10.0,SSE,8.1,-,N/A,,Overcast,150,2013-02-22 19:55:00
2:15 PM,50.0,42.8,76,30.01,10.0,SE,4.6,-,N/A,,Overcast,140,2013-02-22 20:15:00
2:35 PM,50.0,42.8,76,30.01,10.0,SE,3.5,-,N/A,,Overcast,130,2013-02-22 20:35:00
2:55 PM,50.0,42.8,76,30.01,10.0,SE,8.1,-,N/A,,Overcast,140,2013-02-22 20:55:00
3:15 PM,50.0,42.8,76,30.01,10.0,SE,5.8,-,N/A,,Overcast,140,2013-02-22 21:15:00
3:35 PM,50.0,42.8,76,30.01,10.0,SE,4.6,-,N/A,,Overcast,140,2013-02-22 21:35:00
3:55 PM,50.0,42.8,76,30.00,10.0,SE,3.5,-,N/A,,Overcast,130,2013-02-22 21:55:00
4:15 PM,50.0,42.8,76,30.00,10.0,SSE,6.9,-,N/A,,Overcast,150,2013-02-22 22:15:00
4:35 PM,50.0,42.8,76,30.02,10.0,SSE,5.8,-,N/A,,Overcast,150,2013-02-22 22:35:00
4:55 PM,48.2,42.8,82,30.02,10.0,Calm,Calm,-,N/A,,Overcast,0,2013-02-22 22:55:00
5:15 PM,48.2,42.8,82,30.03,10.0,SSE,4.6,-,N/A,,Overcast,150,2013-02-22 23:15:00
5:35 PM,48.2,42.8,82,30.03,10.0,SE,4.6,-,N/A,,Overcast,130,2013-02-22 23:35:00
5:55 PM,48.2,42.8,82,30.01,10.0,SE,4.6,-,N/A,,Overcast,130,2013-02-22 23:55:00
6:15 PM,48.2,42.8,82,30.01,10.0,SE,3.5,-,N/A,,Overcast,130,2013-02-23 00:15:00
6:35 PM,46.4,42.8,87,30.01,10.0,Calm,Calm,-,N/A,,Overcast,0,2013-02-23 00:35:00
6:55 PM,46.4,41.0,81,30.01,10.0,SE,4.6,-,N/A,,Overcast,130,2013-02-23 00:55:00
7:15 PM,46.4,41.0,81,30.01,10.0,Calm,Calm,-,N/A,,Overcast,0,2013-02-23 01:15:00
7:35 PM,46.4,41.0,81,30.04,10.0,SE,4.6,-,N/A,,Mostly Cloudy,140,2013-02-23 01:35:00
7:55 PM,46.4,41.0,81,30.03,10.0,SE,3.5,-,N/A,,Mostly Cloudy,140,2013-02-23 01:55:00
8:15 PM,46.4,41.0,81,30.02,10.0,Calm,Calm,-,N/A,,Overcast,0,2013-02-23 02:15:00
8:35 PM,46.4,41.0,81,30.02,10.0,SE,3.5,-,N/A,,Overcast,140,2013-02-23 02:35:00
8:55 PM,46.4,41.0,81,30.03,10.0,Calm,Calm,-,N/A,,Overcast,0,2013-02-23 02:55:00
9:15 PM,46.4,41.0,81,30.05,7.0,SSE,5.8,-,N/A,,Overcast,150,2013-02-23 03:15:00
9:35 PM,46.4,41.0,81,30.01,7.0,SE,4.6,-,N/A,,Mostly Cloudy,130,2013-02-23 03:35:00
9:55 PM,44.6,41.0,87,30.00,7.0,SE,5.8,-,N/A,,Mostly Cloudy,140,2013-02-23 03:55:00
10:15 PM,46.4,41.0,81,30.05,7.0,SSW,4.6,-,N/A,,Overcast,200,2013-02-23 04:15:00
10:35 PM,44.6,41.0,87,30.04,7.0,Calm,Calm,-,N/A,,Overcast,0,2013-02-23 04:35:00
10:55 PM,44.6,41.0,87,30.01,5.0,Calm,Calm,-,N/A,Rain,Rain,0,2013-02-23 04:55:00
11:15 PM,44.6,42.8,93,30.00,4.0,Calm,Calm,-,0.01,Rain,Light Rain,0,2013-02-23 05:15:00
11:35 PM,44.6,42.8,93,29.98,4.0,Calm,Calm,-,0.01,,Light Drizzle,0,2013-02-23 05:35:00
11:55 PM,44.6,42.8,93,30.01,5.0,Calm,Calm,-,0.01,,Light Drizzle,0,2013-02-23 05:55:00